星链-36224(STARLINK-36224)

导读

STARLINK-36224是美国SpaceX星链互联网星座的一颗卫星,于2025年12月17日发射入轨,归属星链低轨互联网星座组网项目,该星座旨在为全球用户提供覆盖广泛、低延迟的宽带互联网服务,这颗卫星进一步扩充了星链星座的在轨运行规模,助力星座完善全球网络覆盖与服务能力。

Basic Information
目录编号:
67203
目录名称:
STARLINK-36224
国际标识:
2025-304M
轨道中心:
EARTH
卫星名称:
星链-36224
卫星全名:
星链-36224(STARLINK-36224)
卫星状态:
在轨 (已飞行261 天)
发射日期:
2025-12-17 UTC
国别 :
美国 (US)
星等 :
--
Orbit Information
数据来源 国际轨道数据 AOE轨道数据
星历时间 2026-09-04T20:54:01+0800
9小时前
查看轨道信息
2026-09-01T04:00:00+0800
4天前
查看轨道信息
半长轴 6950.193km 6950.206km
偏心率 0.0002472 0.0002751
轨道倾角 70.001° 70.002°
近地点辐角 269.142° 263.910°
升交点赤经 83.541° 92.879°
平近点角 90.945° 281.673°
近地点 570.337km 570.156km
远地点 573.775km 573.982km
周期 96.107分钟 96.107分钟
每日圈数 14.983301 14.98326
Detailed Information
固有亮度:
5
最大亮度:
2.5
卫星平台:
Starlink V1.0
覆盖范围:
全球
运营商:
太空探索技术公司
运营商所在国:
美国
制造商(研发单位):
太空探索技术公司
制造商所在国:
美国
使用方式:
暂无
Satellite Introduction
Starlink 计划是 SpaceX 推出的全球卫星互联网项目,通过发射低轨道卫星,为全球尤其是偏远地区提供高速、低延迟的互联网服务。自 2019 年起,Starlink 已部署数千颗卫星,旨在缩小全球数字鸿沟,推动互联网普及。该项目还为军事、航空等行业提供通信支持,带来广泛经济效益。
2D Orbit Map
3D Orbit Map
Orbit Altitude Analysis Chart
Orbit Inclination Analysis Chart
Orbit Comprehensive Analysis Chart
View Comprehensive Chart
Conjunction Data List
Event ID Objects TCA Miss Dist (km) Collision Risk Probability Collision Risk Index (CRI) Action
CDM_260906-100906-054006-720321
HAWK-10A (60540)
2026-09-06T
10:09:29+0000
2.031 km
极远距离
2.517031E-6 低风险 0.43
CDM_260906-034406-057506-720322
HAWK-10C (60575)
2026-09-06T
03:44:43+0000
2.040 km
极远距离
2.507865E-6 低风险 0.43